Regional Weather Roundup
Issued by NWS

Home | Current Version | Previous Version | Text Only | Print | Product List | Glossary Off
Versions: 1 2 3 4 5 6 7 8 9 10 11 12 13 14 15 16 17 18 19 20 21 22 23 24 25 26 27 28 29 30 31 32 33 34 35 36 37 38 39 40 41 42 43 44 45 46 47 48 49 50

000
ASUS43 KOAX 252010
RWRNE

WEATHER ROUNDUP FOR NEBRASKA
NATIONAL WEATHER SERVICE OMAHA NE
300 PM CDT THU MAY 25 2017

NOTES: SATELLITE DATA IS BEING USED TO AUGMENT CLOUD COVER ABOVE
       12000 FEET.
       "FAIR" INDICATES FEW OR NO CLOUDS BELOW 12,000 FEET WITH NO
       SIGNIFICANT WEATHER AND/OR OBSTRUCTIONS TO VISIBILITY.

  * THESE STATIONS DO NOT REPORT WEATHER SUCH AS RAIN...SNOW OR FOG.

NEZ001>004-019>022-054>056-252100-
NEBRASKA PANHANDLE

CITY           SKY/WX    TMP DP  RH WIND       PRES   REMARKS
SCOTTSBLUFF    CLOUDY    71  48  43 W9        29.58R
ALLIANCE       PTSUNNY   68  44  42 N8        29.57S
CHADRON        PTSUNNY   69  46  43 VRB7      29.57R
GORDON         FAIR      68  40  36 CALM      29.57R
KIMBALL        CLOUDY    66  45  46 N10       29.63R
SIDNEY         LGT RAIN  62  48  60 E9        29.60F
$$

NEZ057>060-069>072-079>082-252100-
SOUTHWEST NEBRASKA

CITY           SKY/WX    TMP DP  RH WIND       PRES   REMARKS
NORTH PLATTE   CLOUDY    73  53  49 E7        29.50F
IMPERIAL       SUNNY     79  52  38 NE8G18    29.53R
LEXINGTON      SUNNY     73  54  51 SE6       29.51F
MCCOOK         SUNNY     79  54  41 E9        29.49S
OGALLALA       MOSUNNY   78  50  37 NE10      29.54R
$$

NEZ005>010-023>029-035>040-094-252100-
NORTH CENTRAL NEBRASKA

CITY           SKY/WX    TMP DP  RH WIND       PRES   REMARKS
VALENTINE      MOSUNNY   73  45  36 VRB7      29.53F
AINSWORTH      CLOUDY    69  54  57 N8        29.54R
BROKEN BOW     SUNNY     69  51  52 S5        29.52F
O`NEILL        CLOUDY    69  51  51 S12       29.55R
THEDFORD       SUNNY     74  53  48 N8        29.54S
$$

NEZ041-046>049-061>064-073>077-083>087-252100-
SOUTH CENTRAL NEBRASKA

CITY           SKY/WX    TMP DP  RH WIND       PRES   REMARKS
GRAND ISLAND   CLOUDY    70  51  51 S16G22    29.53S
AURORA         MOSUNNY   73  49  43 S14       29.51F
HASTINGS       CLOUDY    72  53  51 S10G18    29.53S
HEBRON         MOSUNNY   75  52  44 S17G25    29.51F
HOLDREGE       SUNNY     71  51  49 S6        29.52R
KEARNEY *      SUNNY     72  50  46 S9G20     29.54R
YORK           SUNNY     75  48  38 S18G26    29.52F
$$

NEZ011>018-030>034-042>045-252100-
NORTHEAST NEBRASKA

CITY           SKY/WX    TMP DP  RH WIND       PRES   REMARKS
NORFOLK        PTSUNNY   69  47  45 SW12      29.49F
ALBION         MOSUNNY   71  48  44 S16G25    29.54R
BLAIR          SUNNY     74  50  43 SE14      29.57R
FREMONT        SUNNY     74  49  40 S15G21    29.57S
TEKAMAH        MOSUNNY   75  52  44 SE16      29.57S
WAYNE          CLOUDY    71  49  45 S21       29.53F
$$

NEZ050>053-065>068-078-088>093-252100-
SOUTHEAST NEBRASKA

CITY           SKY/WX    TMP DP  RH WIND       PRES   REMARKS
LINCOLN        SUNNY     78  52  40 S16G28    29.54F
OMAHA EPPLEY   MOSUNNY   76  50  40 S21G31    29.56F
BEATRICE       SUNNY     74  52  46 S18G28    29.54F
FALLS CITY     SUNNY     75  53  46 SE20G28   29.57F
NEBRASKA CITY  SUNNY     76  44  32 SE18G24   29.56F
PLATTSMOUTH    SUNNY     74  49  41 SE20      29.55F
$$

NEZ044-045-051>053-067-252100-
OMAHA AREA

CITY           SKY/WX    TMP DP  RH WIND       PRES   REMARKS
OMAHA EPPLEY   MOSUNNY   76  50  40 S21G31    29.56F
BLAIR          SUNNY     74  50  43 SE14      29.57R
FREMONT        SUNNY     74  49  40 S15G21    29.57S
MILLARD        SUNNY     75  55  48 SE16G22   29.55R
OFFUTT AFB     MOSUNNY   73  51  44 SE20G28   29.55F
PLATTSMOUTH    SUNNY     74  49  41 SE20      29.55F
WAHOO          FAIR      76  48  37 S21       29.55S
$$



USA.gov is the U.S. government's official web portal to all federal, state and local government web resources and services.